| time (UTC) | temp C | wind direction | speed KPH | gust KPH | rain 1hr cm | rain 24hr cm | rain mn cm | humidity % | barometer mb |
| 20260502235105 | 20 | 345 | 8.0 | 14.5 | 0.00 | 0.00 | 0.00 | 66 | 1011.1 |
| 20260502234556 | 20 | 314 | 8.0 | 16.1 | 0.00 | 0.00 | 0.00 | 66 | 1011.1 |
| 20260502234055 | 20 | 352 | 8.0 | 16.1 | 0.00 | 0.00 | 0.00 | 65 | 1011.2 |
| 20260502233815 | 20 | 325 | 8.0 | 16.1 | 0.00 | 0.00 | 0.00 | 67 | 1011.3 |
| 20260502233053 | 20 | 2 | 8.0 | 14.5 | 0.00 | 0.00 | 0.00 | 67 | 1011.4 |
| 20260502232554 | 20 | 337 | 8.0 | 14.5 | 0.00 | 0.00 | 0.00 | 67 | 1011.5 |
| 20260502232317 | 20 | 356 | 8.0 | 14.5 | 0.00 | 0.00 | 0.00 | 67 | 1011.5 |
| 20260502231815 | 20 | 2 | 8.0 | 16.1 | 0.00 | 0.00 | 0.00 | 67 | 1011.5 |
| 20260502231049 | 20 | 332 | 6.4 | 16.1 | 0.00 | 0.00 | 0.00 | 66 | 1011.7 |
| 20260502230549 | 20 | 336 | 6.4 | 14.5 | 0.00 | 0.00 | 0.00 | 65 | 1011.8 |
| 20260502230049 | 20 | 19 | 6.4 | 14.5 | 0.00 | 0.00 | 0.00 | 65 | 1011.9 |
| 20260502225548 | 20 | 0 | 6.4 | 14.5 | 0.00 | 0.00 | 0.00 | 67 | 1012.0 |
| 20260502225316 | 20 | 349 | 6.4 | 12.9 | 0.00 | 0.00 | 0.00 | 66 | 1012.0 |
| 20260502224550 | 19 | 312 | 4.8 | 14.5 | 0.00 | 0.00 | 0.00 | 67 | 1012.1 |
| 20260502224541 | 20 | 305 | 4.8 | 14.5 | 0.00 | 0.00 | 0.00 | 64 | 1012.2 |
| 20260502223539 | 19 | 328 | 4.8 | 12.9 | 0.00 | 0.00 | 0.00 | 68 | 1012.2 |
| 20260502223041 | 19 | 8 | 4.8 | 11.3 | 0.00 | 0.00 | 0.00 | 68 | 1012.3 |
| 20260502222534 | 18 | 293 | 8.0 | 16.1 | 0.00 | 0.00 | 0.00 | 68 | 1012.2 |
| 20260502222258 | 18 | 21 | 6.4 | 16.1 | 0.00 | 0.00 | 0.00 | 68 | 1012.4 |
| 20260502221535 | 18 | 6 | 4.8 | 12.9 | 0.00 | 0.00 | 0.00 | 68 | 1012.4 |
| 20260502221306 | 18 | 64 | 4.8 | 17.7 | 0.00 | 0.00 | 0.00 | 69 | 1012.5 |
| 20260502220534 | 18 | 48 | 6.4 | 17.7 | 0.00 | 0.00 | 0.00 | 70 | 1012.6 |
| 20260502220030 | 18 | 357 | 8.0 | 14.5 | 0.00 | 0.00 | 0.00 | 70 | 1012.8 |
| 20260502215529 | 18 | 308 | 6.4 | 12.9 | 0.00 | 0.00 | 0.00 | 70 | 1012.9 |
| 20260502215030 | 17 | 324 | 4.8 | 11.3 | 0.00 | 0.00 | 0.00 | 71 | 1012.9 |
| 20260502214530 | 17 | 308 | 4.8 | 11.3 | 0.00 | 0.00 | 0.00 | 69 | 1013.0 |
| 20260502214030 | 17 | 288 | 6.4 | 16.1 | 0.00 | 0.00 | 0.00 | 69 | 1013.0 |
| 20260502213754 | 18 | 24 | 6.4 | 16.1 | 0.00 | 0.00 | 0.00 | 65 | 1013.1 |
| 20260502213028 | 18 | 345 | 4.8 | 11.3 | 0.00 | 0.00 | 0.00 | 72 | 1013.2 |
| 20260502212529 | 17 | 356 | 6.4 | 14.5 | 0.00 | 0.00 | 0.00 | 70 | 1013.3 |
| 20260502212030 | 17 | 306 | 4.8 | 14.5 | 0.00 | 0.00 | 0.00 | 71 | 1013.4 |
| 20260502211528 | 16 | 314 | 3.2 | 9.7 | 0.00 | 0.00 | 0.00 | 71 | 1013.6 |
| 20260502211023 | 17 | 36 | 4.8 | 12.9 | 0.00 | 0.00 | 0.00 | 73 | 1013.6 |
| 20260502210524 | 17 | 19 | 6.4 | 14.5 | 0.00 | 0.00 | 0.00 | 73 | 1013.6 |
| 20260502210244 | 16 | 11 | 4.8 | 14.5 | 0.00 | 0.00 | 0.00 | 72 | 1013.6 |
| 20260502205511 | 17 | 37 | 4.8 | 14.5 | 0.00 | 0.00 | 0.00 | 71 | 1013.6 |
| 20260502205243 | 17 | 287 | 4.8 | 11.3 | 0.00 | 0.00 | 0.00 | 72 | 1013.6 |
| 20260502204514 | 17 | 63 | 4.8 | 11.3 | 0.00 | 0.00 | 0.00 | 70 | 1013.9 |
| 20260502204239 | 16 | 310 | 6.4 | 12.9 | 0.00 | 0.00 | 0.00 | 73 | 1013.9 |
| 20260502203506 | 16 | 330 | 6.4 | 12.9 | 0.00 | 0.00 | 0.00 | 71 | 1013.9 |
| 20260502203006 | 16 | 341 | 8.0 | 16.1 | 0.00 | 0.00 | 0.00 | 75 | 1013.9 |
| 20260502202500 | 17 | 356 | 8.0 | 16.1 | 0.00 | 0.00 | 0.00 | 70 | 1013.9 |
| 20260502201959 | 16 | 323 | 6.4 | 17.7 | 0.00 | 0.00 | 0.00 | 73 | 1013.8 |
| 20260502201458 | 16 | 0 | 6.4 | 17.7 | 0.00 | 0.00 | 0.00 | 75 | 1014.0 |
| 20260502200957 | 16 | 27 | 4.8 | 12.9 | 0.00 | 0.00 | 0.00 | 72 | 1014.1 |
| 20260502200455 | 15 | 333 | 3.2 | 12.9 | 0.00 | 0.00 | 0.00 | 75 | 1014.2 |
| 20260502195959 | 15 | 0 | 4.8 | 12.9 | 0.00 | 0.00 | 0.00 | 76 | 1014.2 |
| 20260502195457 | 15 | 28 | 6.4 | 12.9 | 0.00 | 0.00 | 0.00 | 77 | 1014.3 |
| 20260502194953 | 15 | 352 | 4.8 | 12.9 | 0.00 | 0.00 | 0.00 | 76 | 1014.3 |
| 20260502194454 | 14 | 339 | 4.8 | 11.3 | 0.00 | 0.00 | 0.00 | 78 | 1014.3 |
| 20260502193956 | 14 | 5 | 4.8 | 11.3 | 0.00 | 0.00 | 0.00 | 78 | 1014.6 |
| 20260502193451 | 14 | 318 | 4.8 | 11.3 | 0.00 | 0.00 | 0.00 | 77 | 1014.6 |
| 20260502192952 | 14 | 4 | 4.8 | 9.7 | 0.00 | 0.00 | 0.00 | 77 | 1014.7 |
| 20260502192455 | 14 | 313 | 6.4 | 11.3 | 0.00 | 0.00 | 0.00 | 77 | 1014.5 |
| 20260502191952 | 14 | 49 | 4.8 | 11.3 | 0.00 | 0.00 | 0.00 | 78 | 1014.6 |
| 20260502191453 | 14 | 359 | 6.4 | 16.1 | 0.00 | 0.00 | 0.00 | 79 | 1014.6 |
| 20260502190951 | 14 | 28 | 6.4 | 16.1 | 0.00 | 0.00 | 0.00 | 78 | 1014.7 |
| 20260502190453 | 14 | 6 | 4.8 | 12.9 | 0.00 | 0.00 | 0.00 | 79 | 1014.7 |
| 20260502185946 | 14 | 33 | 6.4 | 17.7 | 0.00 | 0.00 | 0.00 | 78 | 1014.6 |
| 20260502185449 | 14 | 23 | 8.0 | 17.7 | 0.00 | 0.00 | 0.00 | 79 | 1014.7 |
| 20260502185154 | 13 | 29 | 6.4 | 14.5 | 0.00 | 0.00 | 0.00 | 78 | 1014.8 |
| 20260502185037 | 13 | 310 | 6.4 | 14.5 | 0.00 | 0.00 | 0.00 | 78 | 1014.7 |
| 20260502183943 | 13 | 341 | 6.4 | 12.9 | 0.00 | 0.00 | 0.00 | 79 | 1014.9 |
| 20260502183444 | 13 | 331 | 6.4 | 12.9 | 0.00 | 0.00 | 0.00 | 80 | 1014.9 |
| 20260502182944 | 13 | 15 | 6.4 | 12.9 | 0.00 | 0.00 | 0.00 | 80 | 1014.9 |
| 20260502182706 | 13 | 10 | 6.4 | 12.9 | 0.00 | 0.00 | 0.00 | 80 | 1014.9 |
| 20260502182200 | 13 | 352 | 4.8 | 14.5 | 0.00 | 0.00 | 0.00 | 80 | 1015.0 |
| 20260502181435 | 13 | 332 | 6.4 | 14.5 | 0.00 | 0.00 | 0.00 | 81 | 1015.0 |
| 20260502180935 | 13 | 332 | 6.4 | 14.5 | 0.00 | 0.00 | 0.00 | 81 | 1015.1 |
| 20260502180658 | 12 | 2 | 6.4 | 14.5 | 0.00 | 0.00 | 0.00 | 82 | 1015.0 |
| 20260502170404 | 12 | 294 | 4.8 | 11.3 | 0.00 | 0.00 | 0.00 | 83 | 1015.3 |
| 20260502163858 | 12 | 316 | 8.0 | 12.9 | 0.00 | 0.00 | 0.00 | 84 | 1015.4 |
| 20260502163359 | 12 | 251 | 6.4 | 12.9 | 0.00 | 0.00 | 0.00 | 85 | 1015.5 |
| 20260502162857 | 12 | 297 | 6.4 | 12.9 | 0.00 | 0.00 | 0.00 | 86 | 1015.3 |
| 20260502162620 | 11 | 295 | 4.8 | 12.9 | 0.00 | 0.00 | 0.00 | 85 | 1015.3 |
| 20260502161855 | 12 | 283 | 4.8 | 9.7 | 0.00 | 0.00 | 0.00 | 85 | 1015.4 |
| 20260502161354 | 11 | 293 | 6.4 | 11.3 | 0.00 | 0.00 | 0.00 | 85 | 1015.2 |
| 20260502161337 | 12 | 326 | 4.8 | 11.3 | 0.00 | 0.00 | 0.00 | 84 | 1015.2 |
| 20260502160356 | 12 | 352 | 4.8 | 9.7 | 0.00 | 0.00 | 0.00 | 84 | 1015.2 |
| 20260502151840 | 11 | 43 | 4.8 | 11.3 | 0.00 | 0.00 | 0.00 | 83 | 1015.3 |
| 20260502151336 | 11 | 48 | 6.4 | 11.3 | 0.00 | 0.00 | 0.00 | 84 | 1015.3 |
| 20260502150838 | 11 | 18 | 6.4 | 11.3 | 0.00 | 0.00 | 0.00 | 85 | 1015.3 |
| 20260502150337 | 11 | 57 | 4.8 | 11.3 | 0.00 | 0.00 | 0.00 | 85 | 1015.3 |
| 20260502130718 | 9 | 173 | 0.0 | 3.2 | 0.00 | 0.00 | 0.00 | 88 | 1015.0 |
| 20260502130219 | 9 | 161 | 0.0 | 0.0 | 0.00 | 0.00 | 0.00 | 88 | 1014.7 |
| 20260502123120 | 10 | 216 | 0.0 | 1.6 | 0.00 | 0.00 | 0.00 | 86 | 1015.1 |
| 20260502122558 | 10 | 216 | 1.6 | 3.2 | 0.00 | 0.00 | 0.00 | 87 | 1015.1 |
| 20260502122055 | 10 | 216 | 1.6 | 3.2 | 0.00 | 0.00 | 0.00 | 87 | 1015.1 |
| 20260502121540 | 10 | 216 | 1.6 | 3.2 | 0.00 | 0.00 | 0.00 | 86 | 1015.1 |
| 20260502121040 | 10 | 216 | 1.6 | 3.2 | 0.00 | 0.00 | 0.00 | 87 | 1015.2 |
| 20260502120544 | 10 | 216 | 1.6 | 4.8 | 0.00 | 0.00 | 0.00 | 87 | 1015.1 |
| 20260502115525 | 9 | 216 | 4.8 | 12.9 | 0.00 | 0.00 | 0.00 | 87 | 1015.3 |
| 20260502115025 | 9 | 237 | 6.4 | 12.9 | 0.00 | 0.00 | 0.00 | 87 | 1015.4 |
| 20260502115000 | 9 | 221 | 4.8 | 11.3 | 0.00 | 0.00 | 0.00 | 88 | 1015.4 |
| 20260502114459 | 9 | 212 | 4.8 | 11.3 | 0.00 | 0.00 | 0.00 | 88 | 1015.4 |
| 20260502113517 | 9 | 214 | 4.8 | 9.7 | 0.00 | 0.00 | 0.00 | 89 | 1015.5 |
| 20260502113013 | 10 | 201 | 4.8 | 8.0 | 0.00 | 0.00 | 0.00 | 89 | 1015.4 |
| 20260502112513 | 10 | 200 | 3.2 | 8.0 | 0.00 | 0.00 | 0.00 | 88 | 1015.5 |
| 20260502112007 | 10 | 222 | 3.2 | 4.8 | 0.00 | 0.00 | 0.00 | 85 | 1015.4 |
| 20260502111952 | 10 | 192 | 3.2 | 4.8 | 0.00 | 0.00 | 0.00 | 85 | 1015.5 |
| 20260502111003 | 10 | 219 | 3.2 | 4.8 | 0.00 | 0.00 | 0.00 | 85 | 1015.4 |
| 20260502110440 | 10 | 223 | 3.2 | 4.8 | 0.00 | 0.00 | 0.00 | 85 | 1015.5 |
| 20260502105942 | 10 | 188 | 3.2 | 6.4 | 0.00 | 0.00 | 0.00 | 85 | 1015.6 |
| 20260502105431 | 10 | 188 | 3.2 | 6.4 | 0.00 | 0.00 | 0.00 | 85 | 1015.5 |
| 20260502104933 | 10 | 197 | 1.6 | 4.8 | 0.00 | 0.00 | 0.00 | 86 | 1015.5 |
| 20260502104649 | 10 | 197 | 1.6 | 3.2 | 0.00 | 0.00 | 0.00 | 86 | 1015.5 |
| 20260502104157 | 10 | 197 | 3.2 | 6.4 | 0.00 | 0.00 | 0.00 | 86 | 1015.6 |
| 20260502103426 | 10 | 197 | 3.2 | 6.4 | 0.00 | 0.00 | 0.00 | 86 | 1015.6 |
| 20260502102928 | 10 | 185 | 1.6 | 4.8 | 0.00 | 0.00 | 0.00 | 85 | 1015.6 |
| 20260502102427 | 10 | 185 | 1.6 | 4.8 | 0.00 | 0.00 | 0.00 | 85 | 1015.5 |
| 20260502101922 | 10 | 185 | 3.2 | 4.8 | 0.00 | 0.00 | 0.00 | 85 | 1015.5 |
| 20260502101423 | 10 | 206 | 3.2 | 6.4 | 0.00 | 0.00 | 0.00 | 85 | 1015.5 |
| 20260502100911 | 10 | 216 | 1.6 | 6.4 | 0.00 | 0.00 | 0.00 | 85 | 1015.5 |
| 20260502100409 | 10 | 180 | 1.6 | 4.8 | 0.00 | 0.00 | 0.00 | 86 | 1015.6 |
| 20260502090840 | 9 | 231 | 3.2 | 9.7 | 0.00 | 0.00 | 0.00 | 86 | 1015.7 |
| 20260502090342 | 9 | 251 | 3.2 | 9.7 | 0.00 | 0.00 | 0.00 | 85 | 1015.8 |
| 20260502071307 | 10 | 259 | 4.8 | 11.3 | 0.00 | 0.00 | 0.00 | 82 | 1016.7 |
| 20260502070803 | 11 | 270 | 6.4 | 11.3 | 0.00 | 0.00 | 0.00 | 82 | 1016.7 |
| 20260502070303 | 11 | 240 | 6.4 | 11.3 | 0.00 | 0.00 | 0.00 | 81 | 1016.6 |
| 20260502065803 | 11 | 270 | 6.4 | 12.9 | 0.00 | 0.00 | 0.00 | 81 | 1016.7 |
| 20260502065306 | 11 | 226 | 6.4 | 12.9 | 0.00 | 0.00 | 0.00 | 81 | 1016.7 |
| 20260502064801 | 11 | 221 | 6.4 | 14.5 | 0.00 | 0.00 | 0.00 | 81 | 1016.8 |
| 20260502064303 | 11 | 239 | 6.4 | 14.5 | 0.00 | 0.00 | 0.00 | 81 | 1016.8 |
| 20260502063805 | 11 | 216 | 6.4 | 11.3 | 0.00 | 0.00 | 0.00 | 81 | 1016.8 |
| 20260502063302 | 11 | 227 | 4.8 | 11.3 | 0.00 | 0.00 | 0.00 | 81 | 1016.8 |
| 20260502063024 | 11 | 203 | 4.8 | 8.0 | 0.00 | 0.00 | 0.00 | 81 | 1016.8 |
| 20260502062258 | 11 | 219 | 4.8 | 6.4 | 0.00 | 0.00 | 0.00 | 81 | 1016.9 |
| 20260502061757 | 11 | 181 | 4.8 | 6.4 | 0.00 | 0.00 | 0.00 | 81 | 1016.9 |
| 20260502061255 | 11 | 239 | 4.8 | 9.7 | 0.00 | 0.00 | 0.00 | 80 | 1016.8 |
| 20260502060754 | 11 | 256 | 6.4 | 12.9 | 0.00 | 0.00 | 0.00 | 81 | 1016.8 |
| 20260502060256 | 11 | 238 | 6.4 | 12.9 | 0.00 | 0.00 | 0.00 | 81 | 1016.7 |
| 20260502055755 | 11 | 252 | 6.4 | 12.9 | 0.00 | 0.00 | 0.00 | 81 | 1016.7 |
| 20260502055254 | 11 | 225 | 8.0 | 16.1 | 0.00 | 0.00 | 0.00 | 80 | 1016.6 |
| 20260502054753 | 11 | 237 | 8.0 | 16.1 | 0.00 | 0.00 | 0.00 | 80 | 1016.6 |
| 20260502054253 | 11 | 265 | 6.4 | 12.9 | 0.00 | 0.00 | 0.00 | 80 | 1016.4 |
| 20260502053752 | 11 | 228 | 6.4 | 14.5 | 0.00 | 0.00 | 0.00 | 80 | 1016.4 |
| 20260502053511 | 11 | 237 | 6.4 | 14.5 | 0.00 | 0.00 | 0.00 | 80 | 1016.4 |
| 20260502053018 | 11 | 243 | 6.4 | 12.9 | 0.00 | 0.00 | 0.00 | 80 | 1016.5 |
| 20260502052250 | 11 | 254 | 8.0 | 12.9 | 0.00 | 0.00 | 0.00 | 79 | 1016.4 |
| 20260502051747 | 11 | 243 | 8.0 | 14.5 | 0.00 | 0.00 | 0.00 | 79 | 1016.4 |
| 20260502051248 | 12 | 228 | 8.0 | 16.1 | 0.00 | 0.00 | 0.00 | 78 | 1016.3 |
| 20260502050747 | 12 | 265 | 8.0 | 16.1 | 0.00 | 0.00 | 0.00 | 78 | 1016.4 |
| 20260502050507 | 12 | 227 | 8.0 | 16.1 | 0.00 | 0.00 | 0.00 | 78 | 1016.3 |
| 20260502050007 | 12 | 227 | 8.0 | 16.1 | 0.00 | 0.00 | 0.00 | 77 | 1016.4 |
| 20260502045239 | 12 | 256 | 9.7 | 16.1 | 0.00 | 0.00 | 0.00 | 77 | 1016.3 |
| 20260502044956 | 12 | 252 | 9.7 | 16.1 | 0.00 | 0.00 | 0.00 | 76 | 1016.2 |
| 20260502044239 | 12 | 241 | 9.7 | 17.7 | 0.00 | 0.00 | 0.00 | 76 | 1016.2 |
| 20260502043735 | 12 | 289 | 9.7 | 17.7 | 0.00 | 0.00 | 0.00 | 75 | 1016.1 |
| 20260502043237 | 12 | 287 | 9.7 | 17.7 | 0.00 | 0.00 | 0.00 | 75 | 1016.1 |
| 20260502042738 | 13 | 233 | 9.7 | 17.7 | 0.00 | 0.00 | 0.00 | 74 | 1016.0 |
| 20260502042233 | 13 | 239 | 11.3 | 19.3 | 0.00 | 0.00 | 0.00 | 73 | 1016.0 |
| 20260502041955 | 13 | 254 | 9.7 | 19.3 | 0.00 | 0.00 | 0.00 | 73 | 1016.0 |
| 20260502041453 | 13 | 239 | 8.0 | 14.5 | 0.00 | 0.00 | 0.00 | 73 | 1015.9 |
| 20260502040724 | 13 | 232 | 8.0 | 16.1 | 0.00 | 0.00 | 0.00 | 73 | 1015.8 |
| 20260502040224 | 13 | 226 | 9.7 | 16.1 | 0.00 | 0.00 | 0.00 | 73 | 1015.7 |
| 20260502035723 | 13 | 244 | 9.7 | 17.7 | 0.00 | 0.00 | 0.00 | 72 | 1015.7 |
| 20260502035218 | 13 | 231 | 9.7 | 17.7 | 0.00 | 0.00 | 0.00 | 71 | 1015.5 |
| 20260502034717 | 14 | 238 | 8.0 | 16.1 | 0.00 | 0.00 | 0.00 | 70 | 1015.4 |
| 20260502034218 | 14 | 249 | 8.0 | 16.1 | 0.00 | 0.00 | 0.00 | 70 | 1015.3 |
| 20260502033717 | 14 | 242 | 6.4 | 16.1 | 0.00 | 0.00 | 0.00 | 70 | 1015.3 |
| 20260502033439 | 15 | 234 | 6.4 | 16.1 | 0.00 | 0.00 | 0.00 | 69 | 1015.2 |
| 20260502032714 | 15 | 237 | 9.7 | 17.7 | 0.00 | 0.00 | 0.00 | 67 | 1015.2 |
| 20260502032214 | 15 | 241 | 9.7 | 17.7 | 0.00 | 0.00 | 0.00 | 66 | 1015.1 |
| 20260502031716 | 15 | 246 | 8.0 | 17.7 | 0.00 | 0.00 | 0.00 | 66 | 1015.1 |
| 20260502031212 | 15 | 232 | 8.0 | 14.5 | 0.00 | 0.00 | 0.00 | 68 | 1014.9 |
| 20260502030713 | 16 | 224 | 6.4 | 14.5 | 0.00 | 0.00 | 0.00 | 68 | 1015.0 |
| 20260502030708 | 16 | 232 | 6.4 | 12.9 | 0.00 | 0.00 | 0.00 | 67 | 1014.9 |
| 20260502025711 | 16 | 248 | 6.4 | 12.9 | 0.00 | 0.00 | 0.00 | 65 | 1014.9 |
| 20260502025211 | 17 | 260 | 6.4 | 12.9 | 0.00 | 0.00 | 0.00 | 64 | 1014.8 |
| 20260502024708 | 17 | 285 | 6.4 | 12.9 | 0.00 | 0.00 | 0.00 | 63 | 1014.7 |
| 20260502024208 | 17 | 248 | 6.4 | 14.5 | 0.00 | 0.00 | 0.00 | 63 | 1014.7 |
| 20260502023706 | 18 | 258 | 6.4 | 14.5 | 0.00 | 0.00 | 0.00 | 62 | 1014.7 |
| 20260502023206 | 18 | 292 | 6.4 | 11.3 | 0.00 | 0.00 | 0.00 | 62 | 1014.6 |
| 20260502022705 | 18 | 290 | 6.4 | 14.5 | 0.00 | 0.00 | 0.00 | 62 | 1014.5 |
| 20260502022204 | 18 | 292 | 8.0 | 16.1 | 0.00 | 0.00 | 0.00 | 61 | 1014.4 |
| 20260502021706 | 18 | 281 | 8.0 | 16.1 | 0.00 | 0.00 | 0.00 | 61 | 1014.4 |
| 20260502021433 | 18 | 292 | 8.0 | 16.1 | 0.00 | 0.00 | 0.00 | 62 | 1014.4 |
| 20260502020702 | 19 | 308 | 6.4 | 16.1 | 0.00 | 0.00 | 0.00 | 62 | 1014.3 |
| 20260502020421 | 19 | 332 | 6.4 | 11.3 | 0.00 | 0.00 | 0.00 | 68 | 1014.3 |
| 20260502015703 | 19 | 283 | 8.0 | 16.1 | 0.00 | 0.00 | 0.00 | 68 | 1014.3 |
| 20260502015201 | 19 | 283 | 8.0 | 16.1 | 0.00 | 0.00 | 0.00 | 67 | 1014.3 |
| 20260502014700 | 19 | 287 | 8.0 | 16.1 | 0.00 | 0.00 | 0.00 | 64 | 1014.3 |
| 20260502014159 | 19 | 252 | 9.7 | 16.1 | 0.00 | 0.00 | 0.00 | 63 | 1014.3 |
| 20260502013658 | 20 | 275 | 8.0 | 16.1 | 0.00 | 0.00 | 0.00 | 63 | 1014.2 |
| 20260502013157 | 20 | 312 | 4.8 | 14.5 | 0.00 | 0.00 | 0.00 | 65 | 1014.3 |
| 20260502012923 | 20 | 322 | 4.8 | 11.3 | 0.00 | 0.00 | 0.00 | 68 | 1014.2 |
| 20260502012158 | 20 | 0 | 6.4 | 12.9 | 0.00 | 0.00 | 0.00 | 67 | 1014.1 |
| 20260502011656 | 20 | 327 | 8.0 | 17.7 | 0.00 | 0.00 | 0.00 | 66 | 1014.1 |
| 20260502011154 | 21 | 319 | 9.7 | 17.7 | 0.00 | 0.00 | 0.00 | 65 | 1014.2 |
| 20260502010655 | 21 | 347 | 8.0 | 14.5 | 0.00 | 0.00 | 0.00 | 64 | 1014.1 |
| 20260502010157 | 21 | 312 | 8.0 | 14.5 | 0.00 | 0.00 | 0.00 | 66 | 1014.1 |
| 20260502005654 | 21 | 354 | 8.0 | 14.5 | 0.00 | 0.00 | 0.00 | 64 | 1014.1 |
| 20260502005153 | 21 | 4 | 8.0 | 14.5 | 0.00 | 0.00 | 0.00 | 63 | 1014.0 |
| 20260502004652 | 21 | 335 | 8.0 | 14.5 | 0.00 | 0.00 | 0.00 | 63 | 1014.1 |
| 20260502004154 | 21 | 0 | 8.0 | 16.1 | 0.00 | 0.00 | 0.00 | 60 | 1014.1 |
| 20260502003654 | 21 | 341 | 9.7 | 16.1 | 0.00 | 0.00 | 0.00 | 59 | 1014.0 |
| 20260502003148 | 21 | 350 | 8.0 | 16.1 | 0.00 | 0.00 | 0.00 | 59 | 1013.9 |
| 20260502002648 | 22 | 331 | 8.0 | 14.5 | 0.00 | 0.00 | 0.00 | 59 | 1013.8 |
| 20260502002152 | 22 | 319 | 8.0 | 14.5 | 0.00 | 0.00 | 0.00 | 57 | 1013.9 |
| 20260502001912 | 22 | 4 | 6.4 | 14.5 | 0.00 | 0.00 | 0.00 | 57 | 1013.9 |
| 20260502001150 | 22 | 287 | 6.4 | 12.9 | 0.00 | 0.00 | 0.00 | 55 | 1014.0 |
| 20260502000644 | 22 | 322 | 6.4 | 12.9 | 0.00 | 0.00 | 0.00 | 57 | 1014.0 |
| 20260502000145 | 22 | 22 | 6.4 | 12.9 | 0.00 | 0.00 | 0.00 | 56 | 1014.1 |
| 20260501235632 | 22 | 208 | 3.2 | 11.3 | 0.00 | 0.00 | 0.00 | 55 | 1014.0 |